Regional Weather Roundup
Issued by NWS

Home | Current Version | Previous Version | Text Only | Print | Product List | Glossary Off
Versions: 1 2 3 4 5 6 7 8 9 10 11 12 13 14 15 16 17 18 19 20 21 22 23 24 25 26 27 28 29 30 31 32 33 34 35 36 37 38 39 40 41 42 43 44 45 46 47 48 49 50

000
ASUS43 KDMX 080007
RWRIA

WEATHER ROUNDUP FOR IOWA
NATIONAL WEATHER SERVICE DES MOINES IA
700 PM CDT TUE JUL 07 2015

NOTE: "FAIR" INDICATES FEW OR NO CLOUDS BELOW 12,000 FEET WITH NO
SIGNIFICANT WEATHER AND/OR OBSTRUCTIONS TO VISIBILITY.

* - THESE STATIONS ARE NOT NWS STATIONS...THUS NOT UNDER NWS
QUALITY CONTROL.  THEY ALSO DO NOT REPORT WEATHER SUCH
AS PRECIPITATION OR FOG.

IAZ001>003-012>014-020>022-031>034-043>046-080100-
   NORTHWEST IOWA

CITY           SKY/WX    TMP DP  RH WIND       PRES   REMARKS
CARROLL *      MOSUNNY   68  52  56 NE7       30.09S
CHEROKEE *     PTSUNNY   68  51  56 E6        30.11S
DENISON *      SUNNY     68  52  56 NE8       30.08S
LE MARS *      SUNNY     70  50  49 VRB7      30.11S
ORANGE CITY *  SUNNY     68  48  49 NE5       30.11S
SHELDON *      SUNNY     66  50  55 NE8       30.10S
SIOUX CITY     SUNNY     71  49  45 NE6       30.10S
6HR MIN TEMP:  68; 6HR MAX TEMP:  73;

SPENCER        SUNNY     69  49  48 NE9       30.11F
6HR MIN TEMP:  67; 6HR MAX TEMP:  71;

STORM LAKE *   MOSUNNY   64  52  63 E8        30.11F
$$

IAZ055>058-069>071-079>083-090>094-080100-
   SOUTHWEST IOWA

CITY           SKY/WX    TMP DP  RH WIND       PRES   REMARKS
ATLANTIC *     SUNNY     70  50  49 NE9       30.08F
AUDUBON *      MOSUNNY   70  52  52 NE7       30.10S
CLARINDA *     SUNNY     72  72 100 NE8       30.08S
COUNCIL BLFS * SUNNY     70  52  52 NE7       30.09S
CRESTON *      SUNNY     70  52  52 NE10G16   30.08S
HARLAN  *      PTSUNNY   68  54  60 MISG      30.12F
LAMONI         CLOUDY    70  56  61 NE8       30.06F
6HR MIN TEMP:  70; 6HR MAX TEMP:  74;

RED OAK *      SUNNY     72  52  49 N8        30.07F
SHENANDOAH *   SUNNY     73  52  46 NE8       30.07F
$$

IAZ047>049-059>061-072>074-084-080100-
   CENTRAL IOWA

CITY           SKY/WX    TMP DP  RH WIND       PRES   REMARKS
AMES           SUNNY     69  50  50 N7        30.09F
6HR MIN TEMP:  67; 6HR MAX TEMP:  72;

ANKENY *       MOSUNNY   68  54  60 NE6       30.08S
CHARITON *     SUNNY     70  54  56 NE8       30.07F
DES MOINES     PTSUNNY   71  50  47 NE10      30.08S
6HR MIN TEMP:  70; 6HR MAX TEMP:  74;

GRINNELL*      PTSUNNY   68  52  56 NE9       30.09S
KNOXVILLE *    PTSUNNY   70  52  52 NE6       30.07S
MARSHALLTOWN   SUNNY     68  52  56 NE7       30.08F
6HR MIN TEMP:  67; 6HR MAX TEMP:  70;

PELLA *        MOSUNNY   69  58  66 N3        30.09S
PERRY *          N/A     66  52  59 NE6       30.09S
$$

IAZ004>006-015-016-023>025-035-036-080100-
   NORTH CENTRAL IOWA

CITY           SKY/WX    TMP DP  RH WIND       PRES   REMARKS
ALGONA *       PTSUNNY   68  52  56 NE9       30.11F
CLARION *      CLOUDY    66  50  55 E8        30.11S
ESTHERVILLE    MOSUNNY   66  51  58 NE9       30.11F
6HR MIN TEMP:  63; 6HR MAX TEMP:  68;

FORT DODGE *   PTSUNNY   66  52  59 E8        30.11S
MASON CITY     MOSUNNY   67  50  54 NE5       30.12S
6HR MIN TEMP:  65; 6HR MAX TEMP:  69;

FOREST CITY *  MOSUNNY   64  48  55 NE5       30.12R
IOWA FALLS *   PTSUNNY   68  50  52 NE7       30.11F
$$

IAZ007>011-017>019-026>030-037>042-050>054-066-080100-
   NORTHEAST IOWA

CITY           SKY/WX    TMP DP  RH WIND       PRES   REMARKS
CEDAR RAPIDS   MOSUNNY   69  53  56 NE10      30.07
6HR MIN TEMP:  68; 6HR MAX TEMP:  72;

CHARLES CITY * MOSUNNY   66  52  59 NE6       30.11S
CLINTON *      PTSUNNY   68  55  64 NE7       30.09R
DECORAH *        N/A    N/A N/A N/A MISG        N/A
DUBUQUE        PTSUNNY   68  51  54 NE9       30.08S
6HR MIN TEMP:  66; 6HR MAX TEMP:  71;

MONTICELLO *   SUNNY     68  52  56 VRB5      30.08R
OELWEIN *      MOSUNNY   64  52  63 NE7       30.11R
WATERLOO       MOSUNNY   68  50  52 N10       30.08S
6HR MIN TEMP:  67; 6HR MAX TEMP:  71;

$$

IAZ064-065-067-068-078-080100-
   EAST CENTRAL IOWA

CITY           SKY/WX    TMP DP  RH WIND       PRES   REMARKS
DAVENPORT      PTSUNNY   69  55  60 NE10      30.06S
6HR MIN TEMP:  69; 6HR MAX TEMP:  73;

IOWA CITY      CLOUDY    73  53  49 N7        30.07S
6HR MIN TEMP:  69; 6HR MAX TEMP:  74;

MT. PLEASANT * PTSUNNY   73  50  45 NE7       30.05F
MUSCATINE *    MOSUNNY   72  55  56 NE8       30.06S
QUAD CITIES    MOSUNNY   70  53  54 NE6       30.05R HAZE
6HR MIN TEMP:  70; 6HR MAX TEMP:  74;

$$

IAZ062-063-075>077-085>089-095>099-080100-
   SOUTHEAST IOWA

CITY           SKY/WX    TMP DP  RH WIND       PRES   REMARKS
BURLINGTON     PTSUNNY   70  58  65 N8        30.04S HAZE
6HR MIN TEMP:  70; 6HR MAX TEMP:  75;

FAIRFIELD *    PTSUNNY   70  59  68 NE5       30.06S
FORT MADISON * SUNNY     70  59  68 N5        30.05S
KEOKUK *       SUNNY     70  59  68 N5        30.03S
OSKALOOSA *    PTSUNNY   69  55  60 NE7       30.07S
CENTERVILLE *  MOSUNNY   68  55  64 N7        30.07F
OTTUMWA        PTSUNNY   70  55  59 N8        30.05S
6HR MIN TEMP:  69; 6HR MAX TEMP:  74;

WASHINGTON *   MOSUNNY   68  59  73 NE6       30.07F
$$

ABBREVIATIONS USED IN REMARKS
   TC - TEMPERATURES IN CELSIUS
  WCI - WIND CHILL INDEX
   HX - HEAT INDEX
  VSB - VISIBILITY
$$



USA.gov is the U.S. government's official web portal to all federal, state and local government web resources and services.